Year,Month,Day,Hour,Minute,Value (Times are PST for temperature in C)
2021,05,31,00,00,13.70
2021,05,31,00,01,13.60
2021,05,31,00,02,13.60
2021,05,31,00,03,13.60
2021,05,31,00,04,13.60
2021,05,31,00,05,13.60
2021,05,31,00,06,13.50
2021,05,31,00,07,13.50
2021,05,31,00,08,13.50
2021,05,31,00,09,13.50
2021,05,31,00,10,13.40
2021,05,31,00,11,13.40
2021,05,31,00,12,13.40
2021,05,31,00,13,13.40
2021,05,31,00,14,13.40
2021,05,31,00,15,13.50
2021,05,31,00,16,13.40
2021,05,31,00,17,13.50
2021,05,31,00,18,13.50
2021,05,31,00,19,13.50
2021,05,31,00,20,13.50
2021,05,31,00,21,13.40
2021,05,31,00,22,13.40
2021,05,31,00,23,13.40
2021,05,31,00,24,13.40
2021,05,31,00,25,13.40
2021,05,31,00,26,13.40
2021,05,31,00,27,13.40
2021,05,31,00,28,13.40
2021,05,31,00,29,13.40
2021,05,31,00,30,13.40
2021,05,31,00,31,13.40
2021,05,31,00,32,13.40
2021,05,31,00,33,13.40
2021,05,31,00,34,13.30
2021,05,31,00,35,13.30
2021,05,31,00,36,13.30
2021,05,31,00,37,13.30
2021,05,31,00,38,13.30
2021,05,31,00,39,13.30
2021,05,31,00,40,13.20
2021,05,31,00,41,13.20
2021,05,31,00,42,13.20
2021,05,31,00,43,13.20
2021,05,31,00,44,13.20
2021,05,31,00,45,13.10
2021,05,31,00,46,13.10
2021,05,31,00,47,13.10
2021,05,31,00,48,13.10
2021,05,31,00,49,13.00
2021,05,31,00,50,13.00
2021,05,31,00,51,13.00
2021,05,31,00,52,12.90
2021,05,31,00,53,12.90
2021,05,31,00,54,12.90
2021,05,31,00,55,12.90
2021,05,31,00,56,12.80
2021,05,31,00,57,12.80
2021,05,31,00,58,12.80
2021,05,31,00,59,12.80
2021,05,31,01,00,12.80
2021,05,31,01,01,12.70
2021,05,31,01,02,12.70
2021,05,31,01,03,12.70
2021,05,31,01,04,12.60
2021,05,31,01,05,12.60
2021,05,31,01,06,12.60
2021,05,31,01,07,12.60
2021,05,31,01,08,12.60
2021,05,31,01,09,12.50
2021,05,31,01,10,12.50
2021,05,31,01,11,12.50
2021,05,31,01,12,12.40
2021,05,31,01,13,12.40
2021,05,31,01,14,12.40
2021,05,31,01,15,12.40
2021,05,31,01,16,12.30
2021,05,31,01,17,12.30
2021,05,31,01,18,12.30
2021,05,31,01,19,12.30
2021,05,31,01,20,12.30
2021,05,31,01,21,12.30
2021,05,31,01,22,12.20
2021,05,31,01,23,12.20
2021,05,31,01,24,12.20
2021,05,31,01,25,12.20
2021,05,31,01,26,12.20
2021,05,31,01,27,12.20
2021,05,31,01,28,12.20
2021,05,31,01,29,12.20
2021,05,31,01,30,12.20
2021,05,31,01,31,12.10
2021,05,31,01,32,12.10
2021,05,31,01,33,12.10
2021,05,31,01,34,12.10
2021,05,31,01,35,12.10
2021,05,31,01,36,12.10
2021,05,31,01,37,12.10
2021,05,31,01,38,12.00
2021,05,31,01,39,12.00
2021,05,31,01,40,12.00
2021,05,31,01,41,12.00
2021,05,31,01,42,12.00
2021,05,31,01,43,12.00
2021,05,31,01,44,12.00
2021,05,31,01,45,12.00
2021,05,31,01,46,12.00
2021,05,31,01,47,12.00
2021,05,31,01,48,12.00
2021,05,31,01,49,12.00
2021,05,31,01,50,12.00
2021,05,31,01,51,12.00
2021,05,31,01,52,12.00
2021,05,31,01,53,12.00
2021,05,31,01,54,12.00
2021,05,31,01,55,11.90
2021,05,31,01,56,11.90
2021,05,31,01,57,11.90
2021,05,31,01,58,11.90
2021,05,31,01,59,11.90
2021,05,31,02,00,11.90
2021,05,31,02,01,11.90
2021,05,31,02,02,11.90
2021,05,31,02,03,11.90
2021,05,31,02,04,11.90
2021,05,31,02,05,11.90
2021,05,31,02,06,11.90
2021,05,31,02,07,11.80
2021,05,31,02,08,11.80
2021,05,31,02,09,11.80
2021,05,31,02,10,11.80
2021,05,31,02,11,11.80
2021,05,31,02,12,11.80
2021,05,31,02,13,11.80
2021,05,31,02,14,11.80
2021,05,31,02,15,11.80
2021,05,31,02,16,11.80
2021,05,31,02,17,11.80
2021,05,31,02,18,11.80
2021,05,31,02,19,11.80
2021,05,31,02,20,11.80
2021,05,31,02,21,11.80
2021,05,31,02,22,11.80
2021,05,31,02,23,11.80
2021,05,31,02,24,11.80
2021,05,31,02,25,11.80
2021,05,31,02,26,11.80
2021,05,31,02,27,11.80
2021,05,31,02,28,11.80
2021,05,31,02,29,11.80
2021,05,31,02,30,11.80
2021,05,31,02,31,11.80
2021,05,31,02,32,11.80
2021,05,31,02,33,11.80
2021,05,31,02,34,11.80
2021,05,31,02,35,11.90
2021,05,31,02,36,11.90
2021,05,31,02,37,11.90
2021,05,31,02,38,11.90
2021,05,31,02,39,11.90
2021,05,31,02,40,11.90
2021,05,31,02,41,12.00
2021,05,31,02,42,12.00
2021,05,31,02,43,12.00
2021,05,31,02,44,12.00
2021,05,31,02,45,12.00
2021,05,31,02,46,12.00
2021,05,31,02,47,12.00
2021,05,31,02,48,12.00
2021,05,31,02,49,12.00
2021,05,31,02,50,12.00
2021,05,31,02,51,11.90
2021,05,31,02,52,11.90
2021,05,31,02,53,11.90
2021,05,31,02,54,11.90
2021,05,31,02,55,11.90
2021,05,31,02,56,11.90
2021,05,31,02,57,11.90
2021,05,31,02,58,11.90
2021,05,31,02,59,11.90
2021,05,31,03,00,11.90
2021,05,31,03,01,11.90
2021,05,31,03,02,11.80
2021,05,31,03,03,11.90
2021,05,31,03,04,11.80
2021,05,31,03,05,11.80
2021,05,31,03,06,11.80
2021,05,31,03,07,11.80
2021,05,31,03,08,11.90
2021,05,31,03,09,11.90
2021,05,31,03,10,11.90
2021,05,31,03,11,11.90
2021,05,31,03,12,11.90
2021,05,31,03,13,11.90
2021,05,31,03,14,11.90
2021,05,31,03,15,11.90
2021,05,31,03,16,11.90
2021,05,31,03,17,11.90
2021,05,31,03,18,11.90
2021,05,31,03,19,11.90
2021,05,31,03,20,11.90
2021,05,31,03,21,11.90
2021,05,31,03,22,11.90
2021,05,31,03,23,11.90
2021,05,31,03,24,11.90
2021,05,31,03,25,11.90
2021,05,31,03,26,11.90
2021,05,31,03,27,11.90
2021,05,31,03,28,11.90
2021,05,31,03,29,11.90
2021,05,31,03,30,11.90
2021,05,31,03,31,11.90
2021,05,31,03,32,11.90
2021,05,31,03,33,11.90
2021,05,31,03,34,11.90
2021,05,31,03,35,11.90
2021,05,31,03,36,12.00
2021,05,31,03,37,12.00
2021,05,31,03,38,12.00
2021,05,31,03,39,12.00
2021,05,31,03,40,12.00
2021,05,31,03,41,12.00
2021,05,31,03,42,12.00
2021,05,31,03,43,12.00
2021,05,31,03,44,12.00
2021,05,31,03,45,11.90
2021,05,31,03,46,11.90
2021,05,31,03,47,11.90
2021,05,31,03,48,11.90
2021,05,31,03,49,11.90
2021,05,31,03,50,11.90
2021,05,31,03,51,11.90
2021,05,31,03,52,11.90
2021,05,31,03,53,11.90
2021,05,31,03,54,11.80
2021,05,31,03,55,11.80
2021,05,31,03,56,11.80
2021,05,31,03,57,11.80
2021,05,31,03,58,11.80
2021,05,31,03,59,11.80
2021,05,31,04,00,11.80
2021,05,31,04,01,11.80
2021,05,31,04,02,11.70
2021,05,31,04,03,11.70
2021,05,31,04,04,11.70
2021,05,31,04,05,11.70
2021,05,31,04,06,11.70
2021,05,31,04,07,11.70
2021,05,31,04,08,11.70
2021,05,31,04,09,11.70
2021,05,31,04,10,11.70
2021,05,31,04,11,11.60
2021,05,31,04,12,11.70
2021,05,31,04,13,11.70
2021,05,31,04,14,11.70
2021,05,31,04,15,11.70
2021,05,31,04,16,11.70
2021,05,31,04,17,11.70
2021,05,31,04,18,11.70
2021,05,31,04,19,11.80
2021,05,31,04,20,11.80
2021,05,31,04,21,11.80
2021,05,31,04,22,11.80
2021,05,31,04,23,11.80
2021,05,31,04,24,11.80
2021,05,31,04,25,11.80
2021,05,31,04,26,11.70
2021,05,31,04,27,11.70
2021,05,31,04,28,11.80
2021,05,31,04,29,11.70
2021,05,31,04,30,11.70
2021,05,31,04,31,11.70
2021,05,31,04,32,11.70
2021,05,31,04,33,11.70
2021,05,31,04,34,11.70
2021,05,31,04,35,11.70
2021,05,31,04,36,11.70
2021,05,31,04,37,11.70
2021,05,31,04,38,11.70
2021,05,31,04,39,11.70
2021,05,31,04,40,11.70
2021,05,31,04,41,11.70
2021,05,31,04,42,11.70
2021,05,31,04,43,11.70
2021,05,31,04,44,11.70
2021,05,31,04,45,11.70
2021,05,31,04,46,11.70
2021,05,31,04,47,11.70
2021,05,31,04,48,11.70
2021,05,31,04,49,11.70
2021,05,31,04,50,11.60
2021,05,31,04,51,11.70
2021,05,31,04,52,11.60
2021,05,31,04,53,11.60
2021,05,31,04,54,11.60
2021,05,31,04,55,11.60
2021,05,31,04,56,11.60
2021,05,31,04,57,11.60
2021,05,31,04,58,11.60
2021,05,31,04,59,11.60
2021,05,31,05,00,11.60
2021,05,31,05,01,11.60
2021,05,31,05,02,11.60
2021,05,31,05,03,11.60
2021,05,31,05,04,11.60
2021,05,31,05,05,11.50
2021,05,31,05,06,11.50
2021,05,31,05,07,11.50
2021,05,31,05,08,11.50
2021,05,31,05,09,11.40
2021,05,31,05,10,11.40
2021,05,31,05,11,11.40
2021,05,31,05,12,11.40
2021,05,31,05,13,11.40
2021,05,31,05,14,11.40
2021,05,31,05,15,11.40
2021,05,31,05,16,11.40
2021,05,31,05,17,11.40
2021,05,31,05,18,11.30
2021,05,31,05,19,11.30
2021,05,31,05,20,11.30
2021,05,31,05,21,11.30
2021,05,31,05,22,11.30
2021,05,31,05,23,11.30
2021,05,31,05,24,11.30
2021,05,31,05,25,11.30
2021,05,31,05,26,11.30
2021,05,31,05,27,11.30
2021,05,31,05,28,11.30
2021,05,31,05,29,11.20
2021,05,31,05,30,11.20
2021,05,31,05,31,11.20
2021,05,31,05,32,11.20
2021,05,31,05,33,11.20
2021,05,31,05,34,11.20
2021,05,31,05,35,11.20
2021,05,31,05,36,11.20
2021,05,31,05,37,11.20
2021,05,31,05,38,11.20
2021,05,31,05,39,11.30
2021,05,31,05,40,11.30
2021,05,31,05,41,11.30
2021,05,31,05,42,11.30
2021,05,31,05,43,11.30
2021,05,31,05,44,11.30
2021,05,31,05,45,11.30
2021,05,31,05,46,11.30
2021,05,31,05,47,11.30
2021,05,31,05,48,11.30
2021,05,31,05,49,11.30
2021,05,31,05,50,11.30
2021,05,31,05,51,11.30
2021,05,31,05,52,11.30
2021,05,31,05,53,11.30
2021,05,31,05,54,11.30
2021,05,31,05,55,11.30
2021,05,31,05,56,11.30
2021,05,31,05,57,11.30
2021,05,31,05,58,11.30
2021,05,31,05,59,11.30
2021,05,31,06,00,11.30
2021,05,31,06,01,11.30
2021,05,31,06,02,11.30
2021,05,31,06,03,11.30
2021,05,31,06,04,11.30
2021,05,31,06,05,11.30
2021,05,31,06,06,11.30
2021,05,31,06,07,11.30
2021,05,31,06,08,11.30
2021,05,31,06,09,11.40
2021,05,31,06,10,11.40
2021,05,31,06,11,11.40
2021,05,31,06,12,11.40
2021,05,31,06,13,11.40
2021,05,31,06,14,11.40
2021,05,31,06,15,11.40
2021,05,31,06,16,11.40
2021,05,31,06,17,11.40
2021,05,31,06,18,11.40
2021,05,31,06,19,11.40
2021,05,31,06,20,11.40
2021,05,31,06,21,11.40
2021,05,31,06,22,11.50
2021,05,31,06,23,11.50
2021,05,31,06,24,11.50
2021,05,31,06,25,11.60
2021,05,31,06,26,11.60
2021,05,31,06,27,11.60
2021,05,31,06,28,11.60
2021,05,31,06,29,11.60
2021,05,31,06,30,11.60
2021,05,31,06,31,11.60
2021,05,31,06,32,11.60
2021,05,31,06,33,11.60
2021,05,31,06,34,11.60
2021,05,31,06,35,11.60
2021,05,31,06,36,11.60
2021,05,31,06,37,11.60
2021,05,31,06,38,11.70
2021,05,31,06,39,11.70
2021,05,31,06,40,11.70
2021,05,31,06,41,11.70
2021,05,31,06,42,11.70
2021,05,31,06,43,11.70
2021,05,31,06,44,11.70
2021,05,31,06,45,11.70
2021,05,31,06,46,11.70
2021,05,31,06,47,11.70
2021,05,31,06,48,11.80
2021,05,31,06,49,11.70
2021,05,31,06,50,11.80
2021,05,31,06,51,11.80
2021,05,31,06,52,11.80
2021,05,31,06,53,11.80
2021,05,31,06,54,11.80
2021,05,31,06,55,11.80
2021,05,31,06,56,11.80
2021,05,31,06,57,11.80
2021,05,31,06,58,11.80
2021,05,31,06,59,11.80
2021,05,31,07,00,11.90
2021,05,31,07,01,11.90
2021,05,31,07,02,11.90
2021,05,31,07,03,11.90
2021,05,31,07,04,11.90
2021,05,31,07,05,11.90
2021,05,31,07,06,12.00
2021,05,31,07,07,12.00
2021,05,31,07,08,12.00
2021,05,31,07,09,12.00
2021,05,31,07,10,12.00
2021,05,31,07,11,12.10
2021,05,31,07,12,12.10
2021,05,31,07,13,12.10
2021,05,31,07,14,12.10
2021,05,31,07,15,12.10
2021,05,31,07,16,12.10
2021,05,31,07,17,12.20
2021,05,31,07,18,12.20
2021,05,31,07,19,12.20
2021,05,31,07,20,12.20
2021,05,31,07,21,12.20
2021,05,31,07,22,12.30
2021,05,31,07,23,12.30
2021,05,31,07,24,12.30
2021,05,31,07,25,12.40
2021,05,31,07,26,12.40
2021,05,31,07,27,12.50
2021,05,31,07,28,12.50
2021,05,31,07,29,12.60
2021,05,31,07,30,12.60
2021,05,31,07,31,12.70
2021,05,31,07,32,12.70
2021,05,31,07,33,12.80
2021,05,31,07,34,12.80
2021,05,31,07,35,12.90
2021,05,31,07,36,12.90
2021,05,31,07,37,13.00
2021,05,31,07,38,13.00
2021,05,31,07,39,13.10
2021,05,31,07,40,13.10
2021,05,31,07,41,13.20
2021,05,31,07,42,13.20
2021,05,31,07,43,13.30
2021,05,31,07,44,13.30
2021,05,31,07,45,13.40
2021,05,31,07,46,13.40
2021,05,31,07,47,13.50
2021,05,31,07,48,13.60
2021,05,31,07,49,13.60
2021,05,31,07,50,13.70
2021,05,31,07,51,13.80
2021,05,31,07,52,13.80
2021,05,31,07,53,13.90
2021,05,31,07,54,13.90
2021,05,31,07,55,14.00
2021,05,31,07,56,14.10
2021,05,31,07,57,14.10
2021,05,31,07,58,14.20
2021,05,31,07,59,14.20
2021,05,31,08,00,14.30
2021,05,31,08,01,14.30
2021,05,31,08,02,14.40
2021,05,31,08,03,14.50
2021,05,31,08,04,14.50
2021,05,31,08,05,14.60
2021,05,31,08,06,14.60
2021,05,31,08,07,14.60
2021,05,31,08,08,14.60
2021,05,31,08,09,14.70
2021,05,31,08,10,14.70
2021,05,31,08,11,14.70
2021,05,31,08,12,14.80
2021,05,31,08,13,14.80
2021,05,31,08,14,14.80
2021,05,31,08,15,14.90
2021,05,31,08,16,14.90
2021,05,31,08,17,14.90
2021,05,31,08,18,15.00
2021,05,31,08,19,15.10
2021,05,31,08,20,15.10
2021,05,31,08,21,15.20
2021,05,31,08,22,15.20
2021,05,31,08,23,15.20
2021,05,31,08,24,15.10
2021,05,31,08,25,15.10
2021,05,31,08,26,15.00
2021,05,31,08,27,14.90
2021,05,31,08,28,14.90
2021,05,31,08,29,15.00
2021,05,31,08,30,15.00
2021,05,31,08,31,15.10
2021,05,31,08,32,15.10
2021,05,31,08,33,15.00
2021,05,31,08,34,15.00
2021,05,31,08,35,14.90
2021,05,31,08,36,14.90
2021,05,31,08,37,14.80
2021,05,31,08,38,14.80
2021,05,31,08,39,14.70
2021,05,31,08,40,14.70
2021,05,31,08,41,14.70
2021,05,31,08,42,14.80
2021,05,31,08,43,14.80
2021,05,31,08,44,15.00
2021,05,31,08,45,15.10
2021,05,31,08,46,15.20
2021,05,31,08,47,15.30
2021,05,31,08,48,15.40
2021,05,31,08,49,15.40
2021,05,31,08,50,15.50
2021,05,31,08,51,15.50
2021,05,31,08,52,15.60
2021,05,31,08,53,15.70
2021,05,31,08,54,15.70
2021,05,31,08,55,15.70
2021,05,31,08,56,15.80
2021,05,31,08,57,15.80
2021,05,31,08,58,15.80
2021,05,31,08,59,15.80
2021,05,31,09,00,15.80
2021,05,31,09,01,15.90
2021,05,31,09,02,15.90
2021,05,31,09,03,15.90
2021,05,31,09,04,16.00
2021,05,31,09,05,16.00
2021,05,31,09,06,16.10
2021,05,31,09,07,16.20
2021,05,31,09,08,16.30
2021,05,31,09,09,16.40
2021,05,31,09,10,16.50
2021,05,31,09,11,16.50
2021,05,31,09,12,16.50
2021,05,31,09,13,16.60
2021,05,31,09,14,16.60
2021,05,31,09,15,16.70
2021,05,31,09,16,16.70
2021,05,31,09,17,16.70
2021,05,31,09,18,16.70
2021,05,31,09,19,16.70
2021,05,31,09,20,16.80
2021,05,31,09,21,16.70
2021,05,31,09,22,16.70
2021,05,31,09,23,16.70
2021,05,31,09,24,16.70
2021,05,31,09,25,16.70
2021,05,31,09,26,16.80
2021,05,31,09,27,16.80
2021,05,31,09,28,16.80
2021,05,31,09,29,16.80
2021,05,31,09,30,16.80
2021,05,31,09,31,16.80
2021,05,31,09,32,16.80
2021,05,31,09,33,16.80
2021,05,31,09,34,16.80
2021,05,31,09,35,16.80
2021,05,31,09,36,16.70
2021,05,31,09,37,16.70
2021,05,31,09,38,16.70
2021,05,31,09,39,16.70
2021,05,31,09,40,16.60
2021,05,31,09,41,16.60
2021,05,31,09,42,16.60
2021,05,31,09,43,16.60
2021,05,31,09,44,16.60
2021,05,31,09,45,16.60
2021,05,31,09,46,16.60
2021,05,31,09,47,16.60
2021,05,31,09,48,16.70
2021,05,31,09,49,16.60
2021,05,31,09,50,16.70
2021,05,31,09,51,16.70
2021,05,31,09,52,16.70
2021,05,31,09,53,16.70
2021,05,31,09,54,16.70
2021,05,31,09,55,16.70
2021,05,31,09,56,16.70
2021,05,31,09,57,16.80
2021,05,31,09,58,16.80
2021,05,31,09,59,16.80
2021,05,31,10,00,16.90
2021,05,31,10,01,16.90
2021,05,31,10,02,17.00
2021,05,31,10,03,17.00
2021,05,31,10,04,17.00
2021,05,31,10,05,17.10
2021,05,31,10,06,17.10
2021,05,31,10,07,17.10
2021,05,31,10,08,17.10
2021,05,31,10,09,17.10
2021,05,31,10,10,17.10
2021,05,31,10,11,17.10
2021,05,31,10,12,17.00
2021,05,31,10,13,17.00
2021,05,31,10,14,17.00
2021,05,31,10,15,17.00
2021,05,31,10,16,17.10
2021,05,31,10,17,17.00
2021,05,31,10,18,17.00
2021,05,31,10,19,17.00
2021,05,31,10,20,17.00
2021,05,31,10,21,17.00
2021,05,31,10,22,17.00
2021,05,31,10,23,17.00
2021,05,31,10,24,17.00
2021,05,31,10,25,17.00
2021,05,31,10,26,17.00
2021,05,31,10,27,17.00
2021,05,31,10,28,17.10
2021,05,31,10,29,17.10
2021,05,31,10,30,17.10
2021,05,31,10,31,17.10
2021,05,31,10,32,17.10
2021,05,31,10,33,17.20
2021,05,31,10,34,17.20
2021,05,31,10,35,17.20
2021,05,31,10,36,17.20
2021,05,31,10,37,17.20
2021,05,31,10,38,17.30
2021,05,31,10,39,17.30
2021,05,31,10,40,17.40
2021,05,31,10,41,17.40
2021,05,31,10,42,17.50
2021,05,31,10,43,17.60
2021,05,31,10,44,17.60
2021,05,31,10,45,17.70
2021,05,31,10,46,17.70
2021,05,31,10,47,17.70
2021,05,31,10,48,17.70
2021,05,31,10,49,17.80
2021,05,31,10,50,17.80
2021,05,31,10,51,17.80
2021,05,31,10,52,17.80
2021,05,31,10,53,17.80
2021,05,31,10,54,17.90
2021,05,31,10,55,17.90
2021,05,31,10,56,17.90
2021,05,31,10,57,18.00
2021,05,31,10,58,18.00
2021,05,31,10,59,18.00
2021,05,31,11,00,18.00
2021,05,31,11,01,18.00
2021,05,31,11,02,18.10
2021,05,31,11,03,18.10
2021,05,31,11,04,18.10
2021,05,31,11,05,18.20
2021,05,31,11,06,18.20
2021,05,31,11,07,18.20
2021,05,31,11,08,18.20
2021,05,31,11,09,18.20
2021,05,31,11,10,18.20
2021,05,31,11,11,18.30
2021,05,31,11,12,18.30
2021,05,31,11,13,18.30
2021,05,31,11,14,18.30
2021,05,31,11,15,18.30
2021,05,31,11,16,18.40
2021,05,31,11,17,18.30
2021,05,31,11,18,18.30
2021,05,31,11,19,18.30
2021,05,31,11,20,18.30
2021,05,31,11,21,18.30
2021,05,31,11,22,18.20
2021,05,31,11,23,18.20
2021,05,31,11,24,18.20
2021,05,31,11,25,18.20
2021,05,31,11,26,18.20
2021,05,31,11,27,18.20
2021,05,31,11,28,18.20
2021,05,31,11,29,18.20
2021,05,31,11,30,18.20
2021,05,31,11,31,18.20
2021,05,31,11,32,18.20
2021,05,31,11,33,18.20
2021,05,31,11,34,18.20
2021,05,31,11,35,18.30
2021,05,31,11,36,18.30
2021,05,31,11,37,18.30
2021,05,31,11,38,18.30
2021,05,31,11,39,18.30
2021,05,31,11,40,18.40
2021,05,31,11,41,18.40
2021,05,31,11,42,18.40
2021,05,31,11,43,18.40
2021,05,31,11,44,18.40
2021,05,31,11,45,18.40
2021,05,31,11,46,18.40
2021,05,31,11,47,18.40
2021,05,31,11,48,18.40
2021,05,31,11,49,18.40
2021,05,31,11,50,18.30
2021,05,31,11,51,18.20
2021,05,31,11,52,18.20
2021,05,31,11,53,18.20
2021,05,31,11,54,18.20
2021,05,31,11,55,18.30
2021,05,31,11,56,18.30
2021,05,31,11,57,18.30
2021,05,31,11,58,18.30
2021,05,31,11,59,18.30
2021,05,31,12,00,18.40
2021,05,31,12,01,18.40
2021,05,31,12,02,18.50
2021,05,31,12,03,18.50
2021,05,31,12,04,18.60
2021,05,31,12,05,18.60
2021,05,31,12,06,18.70
2021,05,31,12,07,18.70
2021,05,31,12,08,18.70
2021,05,31,12,09,18.70
2021,05,31,12,10,18.80
2021,05,31,12,11,18.80
2021,05,31,12,12,18.80
2021,05,31,12,13,18.80
2021,05,31,12,14,18.80
2021,05,31,12,15,18.90
2021,05,31,12,16,18.90
2021,05,31,12,17,18.90
2021,05,31,12,18,19.00
2021,05,31,12,19,19.00
2021,05,31,12,20,19.00
2021,05,31,12,21,19.00
2021,05,31,12,22,19.00
2021,05,31,12,23,19.00
2021,05,31,12,24,19.00
2021,05,31,12,25,19.10
2021,05,31,12,26,19.10
2021,05,31,12,27,19.20
2021,05,31,12,28,19.20
2021,05,31,12,29,19.20
2021,05,31,12,30,19.30
2021,05,31,12,31,19.30
2021,05,31,12,32,19.30
2021,05,31,12,33,19.30
2021,05,31,12,34,19.30
2021,05,31,12,35,19.40
2021,05,31,12,36,19.40
2021,05,31,12,37,19.40
2021,05,31,12,38,19.40
2021,05,31,12,39,19.40
2021,05,31,12,40,19.40
2021,05,31,12,41,19.40
2021,05,31,12,42,19.50
2021,05,31,12,43,19.60
2021,05,31,12,44,19.60
2021,05,31,12,45,19.60
2021,05,31,12,46,19.70
2021,05,31,12,47,19.70
2021,05,31,12,48,19.80
2021,05,31,12,49,19.80
2021,05,31,12,50,19.80
2021,05,31,12,51,19.90
2021,05,31,12,52,19.90
2021,05,31,12,53,19.90
2021,05,31,12,54,19.90
2021,05,31,12,55,19.90
2021,05,31,12,56,20.00
2021,05,31,12,57,20.00
2021,05,31,12,58,20.00
2021,05,31,12,59,19.90
2021,05,31,13,00,19.90
2021,05,31,13,01,19.80
2021,05,31,13,02,19.80
2021,05,31,13,03,19.80
2021,05,31,13,04,19.70
2021,05,31,13,05,19.70
2021,05,31,13,06,19.70
2021,05,31,13,07,19.70
2021,05,31,13,08,19.80
2021,05,31,13,09,19.80
2021,05,31,13,10,19.80
2021,05,31,13,11,19.80
2021,05,31,13,12,19.80
2021,05,31,13,13,19.80
2021,05,31,13,14,19.80
2021,05,31,13,15,19.90
2021,05,31,13,16,19.90
2021,05,31,13,17,20.00
2021,05,31,13,18,20.00
2021,05,31,13,19,20.00
2021,05,31,13,20,20.10
2021,05,31,13,21,20.10
2021,05,31,13,22,20.20
2021,05,31,13,23,20.20
2021,05,31,13,24,20.30
2021,05,31,13,25,20.40
2021,05,31,13,26,20.50
2021,05,31,13,27,20.60
2021,05,31,13,28,20.70
2021,05,31,13,29,20.80
2021,05,31,13,30,20.80
2021,05,31,13,31,20.90
2021,05,31,13,32,21.00
2021,05,31,13,33,21.10
2021,05,31,13,34,21.00
2021,05,31,13,35,21.00
2021,05,31,13,36,20.90
2021,05,31,13,37,20.90
2021,05,31,13,38,20.90
2021,05,31,13,39,20.90
2021,05,31,13,40,20.90
2021,05,31,13,41,21.00
2021,05,31,13,42,21.20
2021,05,31,13,43,21.30
2021,05,31,13,44,21.30
2021,05,31,13,45,21.40
2021,05,31,13,46,21.50
2021,05,31,13,47,21.60
2021,05,31,13,48,21.60
2021,05,31,13,49,21.70
2021,05,31,13,50,21.70
2021,05,31,13,51,21.80
2021,05,31,13,52,21.80
2021,05,31,13,53,21.80
2021,05,31,13,54,21.80
2021,05,31,13,55,21.90
2021,05,31,13,56,21.90
2021,05,31,13,57,21.90
2021,05,31,13,58,21.90
2021,05,31,13,59,21.90
2021,05,31,14,00,21.80
2021,05,31,14,01,21.90
2021,05,31,14,02,21.90
2021,05,31,14,03,22.00
2021,05,31,14,04,22.00
2021,05,31,14,05,22.10
2021,05,31,14,06,22.00
2021,05,31,14,07,22.00
2021,05,31,14,08,22.00
2021,05,31,14,09,22.00
2021,05,31,14,10,22.00
2021,05,31,14,11,22.10
2021,05,31,14,12,22.20
2021,05,31,14,13,22.30
2021,05,31,14,14,22.30
2021,05,31,14,15,22.30
2021,05,31,14,16,22.30
2021,05,31,14,17,22.30
2021,05,31,14,18,22.30
2021,05,31,14,19,22.30
2021,05,31,14,20,22.30
2021,05,31,14,21,22.30
2021,05,31,14,22,22.40
2021,05,31,14,23,22.30
2021,05,31,14,24,22.30
2021,05,31,14,25,22.30
2021,05,31,14,26,22.20
2021,05,31,14,27,22.10
2021,05,31,14,28,22.10
2021,05,31,14,29,22.10
2021,05,31,14,30,22.00
2021,05,31,14,31,22.10
2021,05,31,14,32,22.10
2021,05,31,14,33,22.20
2021,05,31,14,34,22.30
2021,05,31,14,35,22.30
2021,05,31,14,36,22.50
2021,05,31,14,37,22.60
2021,05,31,14,38,22.80
2021,05,31,14,39,22.90
2021,05,31,14,40,22.90
2021,05,31,14,41,23.00
2021,05,31,14,42,23.10
2021,05,31,14,43,23.20
2021,05,31,14,44,23.20
2021,05,31,14,45,23.30
2021,05,31,14,46,23.30
2021,05,31,14,47,23.20
2021,05,31,14,48,23.20
2021,05,31,14,49,23.10
2021,05,31,14,50,23.00
2021,05,31,14,51,22.90
2021,05,31,14,52,22.80
2021,05,31,14,53,22.80
2021,05,31,14,54,22.70
2021,05,31,14,55,22.60
2021,05,31,14,56,22.60
2021,05,31,14,57,22.60
2021,05,31,14,58,22.60
2021,05,31,14,59,22.60
2021,05,31,15,00,22.60
2021,05,31,15,01,22.60
2021,05,31,15,02,22.60
2021,05,31,15,03,22.60
2021,05,31,15,04,22.60
2021,05,31,15,05,22.60
2021,05,31,15,06,22.70
2021,05,31,15,07,22.70
2021,05,31,15,08,22.70
2021,05,31,15,09,22.70
2021,05,31,15,10,22.80
2021,05,31,15,11,22.80
2021,05,31,15,12,22.80
2021,05,31,15,13,22.80
2021,05,31,15,14,22.70
2021,05,31,15,15,22.70
2021,05,31,15,16,22.60
2021,05,31,15,17,22.60
2021,05,31,15,18,22.50
2021,05,31,15,19,22.40
2021,05,31,15,20,22.40
2021,05,31,15,21,22.40
2021,05,31,15,22,22.50
2021,05,31,15,23,22.60
2021,05,31,15,24,22.60
2021,05,31,15,25,22.60
2021,05,31,15,26,22.80
2021,05,31,15,27,22.90
2021,05,31,15,28,22.90
2021,05,31,15,29,23.00
2021,05,31,15,30,23.00
2021,05,31,15,31,22.90
2021,05,31,15,32,22.90
2021,05,31,15,33,22.80
2021,05,31,15,34,22.80
2021,05,31,15,35,22.70
2021,05,31,15,36,22.70
2021,05,31,15,37,22.60
2021,05,31,15,38,22.60
2021,05,31,15,39,22.60
2021,05,31,15,40,22.60
2021,05,31,15,41,22.60
2021,05,31,15,42,22.70
2021,05,31,15,43,22.70
2021,05,31,15,44,22.60
2021,05,31,15,45,22.60
2021,05,31,15,46,22.60
2021,05,31,15,47,22.60
2021,05,31,15,48,22.60
2021,05,31,15,49,22.60
2021,05,31,15,50,22.60
2021,05,31,15,51,22.60
2021,05,31,15,52,22.50
2021,05,31,15,53,22.50
2021,05,31,15,54,22.40
2021,05,31,15,55,22.30
2021,05,31,15,56,22.20
2021,05,31,15,57,22.20
2021,05,31,15,58,22.10
2021,05,31,15,59,21.90
2021,05,31,16,00,21.70
2021,05,31,16,01,21.60
2021,05,31,16,02,21.50
2021,05,31,16,03,21.40
2021,05,31,16,04,21.40
2021,05,31,16,05,21.40
2021,05,31,16,06,21.40
2021,05,31,16,07,21.40
2021,05,31,16,08,21.40
2021,05,31,16,09,21.40
2021,05,31,16,10,21.40
2021,05,31,16,11,21.30
2021,05,31,16,12,21.20
2021,05,31,16,13,21.20
2021,05,31,16,14,21.20
2021,05,31,16,15,21.10
2021,05,31,16,16,21.00
2021,05,31,16,17,20.90
2021,05,31,16,18,20.80
2021,05,31,16,19,20.80
2021,05,31,16,20,20.80
2021,05,31,16,21,20.80
2021,05,31,16,22,20.80
2021,05,31,16,23,20.80
2021,05,31,16,24,20.90
2021,05,31,16,25,21.00
2021,05,31,16,26,21.10
2021,05,31,16,27,21.20
2021,05,31,16,28,21.30
2021,05,31,16,29,21.30
2021,05,31,16,30,21.30
2021,05,31,16,31,21.20
2021,05,31,16,32,21.20
2021,05,31,16,33,21.20
2021,05,31,16,34,21.30
2021,05,31,16,35,21.40
2021,05,31,16,36,21.50
2021,05,31,16,37,21.50
2021,05,31,16,38,21.60
2021,05,31,16,39,21.50
2021,05,31,16,40,21.40
2021,05,31,16,41,21.30
2021,05,31,16,42,21.20
2021,05,31,16,43,21.10
2021,05,31,16,44,20.90
2021,05,31,16,45,20.90
2021,05,31,16,46,20.90
2021,05,31,16,47,20.90
2021,05,31,16,48,20.90
2021,05,31,16,49,20.90
2021,05,31,16,50,20.90
2021,05,31,16,51,20.80
2021,05,31,16,52,20.80
2021,05,31,16,53,20.70
2021,05,31,16,54,20.70
2021,05,31,16,55,20.70
2021,05,31,16,56,20.80
2021,05,31,16,57,20.80
2021,05,31,16,58,20.90
2021,05,31,16,59,20.90
2021,05,31,17,00,20.90
2021,05,31,17,01,20.90
2021,05,31,17,02,20.90
2021,05,31,17,03,21.00
2021,05,31,17,04,21.10
2021,05,31,17,05,21.20
2021,05,31,17,06,21.20
2021,05,31,17,07,21.30
2021,05,31,17,08,21.40
2021,05,31,17,09,21.40
2021,05,31,17,10,21.50
2021,05,31,17,11,21.60
2021,05,31,17,12,21.60
2021,05,31,17,13,21.60
2021,05,31,17,14,21.70
2021,05,31,17,15,21.80
2021,05,31,17,16,21.80
2021,05,31,17,17,21.90
2021,05,31,17,18,22.00
2021,05,31,17,19,22.00